Location: Hanover
(52.3667°N, 9.7167°E)
Time: 03:29:13
(UTC+02:00)

ARIANE 6 FM1 Upper Stage - Pass Details

Date: 26 September 2024
Orbit: 564 x 594 km, 62.0° (Epoch: 06 October)

Event Time Altitude Azimuth Distance (km) Brightness Sun altitude
Rises 23:57:51 0° 295° (WNW) 2,816 6.8 -36.6°
Reaches altitude 10° 00:00:29 10° 310° (NW) 1,921 6.0 -36.8°
Enters shadow 00:01:00 12° 315° (NW) 1,770 5.8 -36.8°
